Regional Weather Roundup
Issued by NWS

Home | Current Version | Previous Version | Graphics & Text | Print | Product List | Glossary On
Versions: 1 2 3 4 5 6 7 8 9 10 11 12 13 14 15 16 17 18 19 20 21 22 23 24 25 26 27 28 29 30 31 32 33 34 35 36 37 38 39 40 41 42 43 44 45 46 47 48 49 50
000
ASUS43 KDTX 110010
RWRMI
MICHIGAN HOURLY REGIONAL WEATHER ROUNDUP
NATIONAL WEATHER SERVICE DETROIT/PONTIAC MI
ISSUED BY NATIONAL WEATHER SERVICE GRAND RAPIDS MI
700 PM EST SAT DEC 10 2016

NOTE: "FAIR" INDICATES FEW OR NO CLOUDS BELOW 12,000 FEET WITH NO
SIGNIFICANT WEATHER AND/OR OBSTRUCTION TO VISIBILITY.

MIZ047>049-052>055-059>063-066>070-074>076-081>083-110100-
SOUTHEAST LOWER MICHIGAN

CITY           SKY/WX    TMP DP  RH WIND       PRES   REMARKS
ADRIAN         CLOUDY    24  17  74 W5        30.42F WCI  18
6HR MIN TEMP:  24; 6HR MAX TEMP:  27;

ALMA           CLEAR     19  12  74 MISG      30.38F
6HR MIN TEMP:  19; 6HR MAX TEMP:  28;

ANN ARBOR      MOCLDY    23  17  78 SW7       30.40F WCI  15
BAD AXE        CLOUDY    21  12  67 SW5       30.37S WCI  15
DETROIT CITY   CLOUDY    25  17  72 SW9       30.41F WCI  15
6HR MIN TEMP:  25; 6HR MAX TEMP:  28;

DETROIT        CLOUDY    26  17  68 SW10      30.42F WCI  16
6HR MIN TEMP:  25; 6HR MAX TEMP:  30; 6HR PCP: TRACE;

FLINT          MOCLDY    20  16  84 SW3       30.39S
6HR MIN TEMP:  20; 6HR MAX TEMP:  26; 6HR PCP: TRACE;

GROSSE ILE     PTCLDY    26  17  66 W8        30.42S WCI  18
6HR MIN TEMP:  26; 6HR MAX TEMP:  31;

HILLSDALE      CLOUDY    21  16  79 SW6       30.37F WCI  14
HOWELL         FLURRIES  23  20  89 SW3       30.37F

CITY           SKY/WX    TMP DP  RH WIND       PRES   REMARKS
JACKSON        CLOUDY    22  15  75 SW7       30.39F WCI  13
6HR MIN TEMP:  21; 6HR MAX TEMP:  24;

LANSING        CLOUDY    23  17  78 SW7       30.39F WCI  15
6HR MIN TEMP:  23; 6HR MAX TEMP:  26; 6HR PCP:  0.01;

MASON          LGT SNOW  23  20  90 SW3       30.39S
MONROE         CLOUDY    26  18  72 W5        30.42S WCI  20
6HR MIN TEMP:  26; 6HR MAX TEMP:  31;

MT. CLEMENS    MOCLDY    24  16  72 SW7       30.39R WCI  16
6HR MIN TEMP:  24; 6HR MAX TEMP:  30; 6HR PCP: TRACE;

PONTIAC        FLURRIES  22  18  85 SW9       30.37S WCI  12
6HR MIN TEMP:  23; 6HR MAX TEMP:  26; 6HR PCP: TRACE;

PORT HOPE        N/A     24  13  62 SW5       30.35S WCI  18
6HR MIN TEMP:  24; 6HR MAX TEMP:  26;

PORT HURON     PTCLDY    21  18  86 CALM      30.40S
TRI CITIES     CLEAR     20  13  74 W8        30.39S WCI  10
6HR MIN TEMP:  20; 6HR MAX TEMP:  28;

YPSILANTI      PTCLDY    26  18  71 SW8       30.41F WCI  18
6HR MIN TEMP:  25; 6HR MAX TEMP:  30;

$$
MIZ043>046-050>051-056>058-064>065-071>073-077>080-110100-
SOUTHWEST LOWER MICHIGAN

CITY           SKY/WX    TMP DP  RH WIND       PRES   REMARKS
BATTLE CREEK   CLOUDY    21  18  88 SW9       30.39S WCI  11
6HR MIN TEMP:  18; 6HR MAX TEMP:  24; 6HR PCP: TRACE;

BENTON HARBOR  CLOUDY    24  14  65 S8        30.41S WCI  15
6HR MIN TEMP:  24; 6HR MAX TEMP:  27; 6HR PCP: TRACE;

BIG RAPIDS     CLOUDY    18  13  82 CALM      30.35R
6HR MIN TEMP:  17; 6HR MAX TEMP:  23;

COLDWATER      CLOUDY    23  16  74 SW6       30.39F WCI  16
6HR MIN TEMP:  23; 6HR MAX TEMP:  25;

HOLLAND        CLOUDY    26  17  68 SW5       30.38S WCI  20
6HR MIN TEMP:  25; 6HR MAX TEMP:  27; 6HR PCP: TRACE;

GRAND RAPIDS   FLURRIES  22  18  85 S3        30.39R
6HR MIN TEMP:  21; 6HR MAX TEMP:  24; 6HR PCP:  0.01;

KALAMAZOO      CLOUDY    23  15  71 SW9       30.40S WCI  13
6HR MIN TEMP:  23; 6HR MAX TEMP:  24; 6HR PCP: TRACE;

MARSHALL       CLOUDY    21  17  83 CALM      30.39S
6HR MIN TEMP:  21; 6HR MAX TEMP:  25;

MOUNT PLEASANT MOCLDY    20  10  64 W3        30.36F
6HR MIN TEMP:  20; 6HR MAX TEMP:  26;

MUSKEGON       CLOUDY    26  15  63 W7        30.38S WCI  18
6HR MIN TEMP:  24; 6HR MAX TEMP:  26; 6HR PCP: TRACE;

STURGIS        CLOUDY    23  16  75 S6        30.39F WCI  15
6HR MIN TEMP:  23; 6HR MAX TEMP:  25;

$$
MIZ016>042-110100-
NORTHERN LOWER MICHIGAN

CITY           SKY/WX    TMP DP  RH WIND       PRES   REMARKS
ALPENA         CLEAR     18   6  59 SW7       30.33F WCI   9
6HR MIN TEMP:  18; 6HR MAX TEMP:  24; 6HR PCP: TRACE;

BEAVER ISLAND  FLURRIES  23  14  68 NW6       30.31S WCI  16
BELLAIRE       CLOUDY    20  13  75 SW5       30.35F WCI  14
6HR MIN TEMP:  20; 6HR MAX TEMP:  22;

CADILLAC       CLOUDY    17  11  77 CALM      30.30S
CHARLEVOIX     CLOUDY    22  15  72 SW12      30.34S WCI  11
GAYLORD        CLEAR     14   7  73 SW12      30.28S WCI   0
6HR MIN TEMP:  14; 6HR MAX TEMP:  20; 6HR PCP: TRACE;

HOUGHTON LAKE  FLURRIES  17  12  80 CALM      30.32F
6HR MIN TEMP:  17; 6HR MAX TEMP:  21; 6HR PCP:  0.01;

MANISTEE       CLOUDY    20  12  71 S5        30.35F WCI  13
OSCODA         CLOUDY    22  13  68 MISG      30.35S
6HR MIN TEMP:  20; 6HR MAX TEMP:  29;

PELLSTON       SNOW      20  17  88 SW3       30.31S VSB 1/2
6HR MIN TEMP:  19; 6HR MAX TEMP:  22; 6HR PCP:  0.05;

TRAVERSE CITY  CLOUDY    20  12  71 CALM      30.34F
6HR MIN TEMP:  20; 6HR MAX TEMP:  21; 6HR PCP: TRACE;

LUDINGTON      CLOUDY    23  14  68 W5        30.36S WCI  17
6HR MIN TEMP:  21; 6HR MAX TEMP:  23;

$$
MIZ007>008-015-110100-
EASTERN UPPER MICHIGAN

CITY           SKY/WX    TMP DP  RH WIND       PRES   REMARKS
KINROSS        CLEAR     12   8  84 CALM      30.28S
6HR MIN TEMP:  12; 6HR MAX TEMP:  25; 6HR PCP: TRACE;

MACKINAC ISLAN MOCLDY    20  14  78 NW8G16    30.28F WCI  10
NEWBERRY       FLURRIES  16  15  95 W9        30.27F WCI   5
6HR MIN TEMP:  15; 6HR MAX TEMP:  20;

S. S. MARIE    CLEAR     15  10  80 SW6       30.27F WCI   6
6HR MIN TEMP:  15; 6HR MAX TEMP:  22; 6HR PCP: TRACE;

$$
MIZ004>006-011>014-085-110100-
CENTRAL UPPER MICHIGAN

CITY           SKY/WX    TMP DP  RH WIND       PRES   REMARKS
MANISTIQUE     PTCLDY    13   8  83 CALM      30.31F
6HR MIN TEMP:  12; 6HR MAX TEMP:  21;

ESCANABA       CLEAR     12   7  80 W3        30.34F
6HR MIN TEMP:  12; 6HR MAX TEMP:  22;

MENOMINEE      PTCLDY    15   4  61 MISG        N/A
6HR MIN TEMP:  15; 6HR MAX TEMP:  19;

SAWYER-GWINN   CLEAR      7   1  78 W5        30.29F WCI  -2
$$
MIZ001>003-009>011-084-110100-
WESTERN UPPER MICHIGAN

CITY           SKY/WX    TMP DP  RH WIND       PRES   REMARKS
IRON MOUNTAIN  CLEAR      6  -2  69 CALM      30.28F
6HR MIN TEMP:   6; 6HR MAX TEMP:  17;

HOUGHTON       CLOUDY    12   7  80 SW3       30.27F HAZE
6HR MIN TEMP:  12; 6HR MAX TEMP:  15; 6HR PCP:  0.01;

COPPER HARBOR    N/A     16   9  74 W5        30.32S WCI   9
6HR MIN TEMP:  15; 6HR MAX TEMP:  20; 6HR PCP:  0.07;

IRONWOOD       CLEAR     -3  -6  87 E3        30.30F
6HR MIN TEMP:  -4; 6HR MAX TEMP:  17;

$$

ABBREVIATIONS USED IN REMARKS
   TC - TEMPERATURE IN CELSIUS
  WCI - WIND CHILL INDEX
   HX - HEAT INDEX
  VSB - VISIBILITY




USA.gov is the U.S. government's official web portal to all federal, state and local government web resources and services.